User: anonymous   Login
Location: Gleizolles
(44.4833°N, 6.7667°E)
Time: 08:44:29
(UTC+00:00)
Language:

CUTE 1.7 + AOD 2 - Orbit

View from above orbital plane
View from above orbital plane
View from above satellite
View from above satellite

Ground track
Ground track

The orbit data is extracted from the following two-line orbital elements,

1 32785U 08021C   21128.87799179  .00000228  00000-0  29979-4 0  9999
2 32785  97.6088 109.2635 0014126 129.8297 230.4166 14.88701442706355
Epoch (UTC): 08 May 2021 21:04:18
Eccentricity: 0.0014126
inclination: 97.6088°
perigee height: 592 km
apogee height: 612 km
right ascension of ascending node: 109.2635°
argument of perigee: 129.8297°
revolutions per day: 14.88701442
mean anomaly at epoch: 230.4166°
orbit number at epoch: 70635

The dashed part of the orbit path shows where the satellite is in the earth's shadow,  

DLR